SL-16 DEB, 22330

Orbit data source: Space-Track

SL-16 DEB, 22330 is space debris in LEO originally from a launch on Fri, 25 Dec 1992 UTC launched from the Tyuratam Missile And Space Complex (TTMTR). Debris objects in space refer to the collection of defunct objects orbiting the Earth. Examples of debris include non-operational satellites, rocket bodies, and fragments generated from explosions, collisions, or faulty payload assembly.

Loading next visibility...
Identifier
22330, 1992-093T
Orbit
LEO
Country
Flag of CISCIS
Related business
Manufacturer
Unknown
Mission
Spacecraft
Bus & Motor
Unknown
Mass
Unknown
Launch date (UTC)
1992-12-25 (33 years ago)
Launch vehicle
Unknown
Launch site
Tyuratam Missile And Space Complex (TTMTR)
Object type
Payload
Rocket body
Debris
Shape & HBR
Unknown shape, 0.3 m
Radar Cross Section
Small (<0.1 m²)

Expand to show TLE details & history
Last TLE update: 17 hours ago

TLE from 17 hours ago
0 SL-16 DEB
1 22330U 92093T   26036.72026794  .00000973  00000-0  55170-3 0  9997
2 22330  70.4158 136.9470 0113011 202.8782 319.0741 14.09575139695596
Epoch: 2026-02-05T17:17Z
TLE epoch observation values (Epoch: 2026-02-05T17:17:11.150Z)
Latitude
17.77549°
Longitude
-84.73223°
Altitude
801.192 km
Speed
7.486 km/s
True Right ascension
20h 41m 43s
True Declination
17° 40' 35"
Sunlit
Object was in daylight at epoch
Visualization orbit readout
Latitude
Unknown
Longitude
Unknown
Altitude
Unknown
Speed
Unknown
Apparent Right ascension
Unknown
Apparent Declination
Unknown
Sunlit
N/A
Visualization observer readout
Local Sidereal Time
12:07:03
Azimuth
Unknown
Elevation
Unknown
Doppler factor
Unknown
Orbital elements
Apogee altitude
940.599 km
Perigee altitude
777.028 km
Semi-major axis
7,236.951 km
Eccentricity
0.0113
Inclination
70.4158°
RAAN
136.947°
Arg. of periapsis
202.8782°
True anomaly
318.21665°
Mean anomaly
319.0741°
Eccentric anomaly
318.64629°
Mean motion
3.52541 °/min
Orbital period
102.12 mins
BSTAR
0.0005517
Loading maneuver chart data...
Computing Atmospheric mass density...
Loading historical data...
Loading historical data...
Loading historical data...
Loading historical data...
Loading historical data...
Loading historical data...
Loading historical data...

Documentation

Showing up to 5 results
|